Regional Weather Roundup
Issued by NWS Little Rock, AR

Home | Current Version | Previous Version | Graphics & Text | Print | Product List | Glossary On
Versions: 1 2 3 4 5 6 7 8 9 10 11 12 13 14 15 16 17 18 19 20 21 22 23 24 25 26 27 28 29 30 31 32 33 34 35 36 37 38 39 40 41 42 43 44 45 46 47 48 49 50
000
ASUS44 KLZK 111005
RWRLZK

WEATHER ROUNDUP FOR ARKANSAS
NATIONAL WEATHER SERVICE LITTLE ROCK AR
400 AM CST THU FEB 11 2016

NOTE: "FAIR" INDICATES FEW OR NO CLOUDS BELOW 12,000 FEET WITH NO
SIGNIFICANT WEATHER AND/OR OBSTRUCTIONS TO VISIBILITY.

ARZ001-003-010-029-111100-
NORTHWEST ARKANSAS

CITY           SKY/WX    TMP DP  RH WIND       PRES   REMARKS
FAYETTEVILLE   CLEAR     30  27  88 CALM      29.99R
FORT SMITH     CLEAR     35  25  66 CALM      29.98R
HARRISON       CLEAR     29  19  66 E5        30.02R WCI  24
BENTONVILLE    CLEAR    N/A N/A N/A E3        29.99R
ROGERS         CLEAR     32  25  75 E6        30.00R WCI  26
SILOAM SPGS    CLEAR     39  25  56 E6        29.99R
HIGHFILL       CLOUDY    33  27  78 N5        29.98R WCI  29
$$

ARZ004-005-016-111100-
NORTH CENTRAL ARKANSAS

CITY           SKY/WX    TMP DP  RH WIND       PRES   REMARKS
BATESVILLE     CLEAR     28  16  59 N5        30.07R WCI  23
FLIPPIN        CLEAR     28  12  50 CALM      30.03R
MTN HOME       CLEAR     25  13  60 NE6       30.03R WCI  18
$$

ARZ040-041-111100-
WEST CENTRAL ARKANSAS

CITY           SKY/WX    TMP DP  RH WIND       PRES   REMARKS
MENA           CLEAR     48  36  61 CALM      29.98R
MOUNT IDA      CLEAR     40  32  73 CALM      29.94S
$$

ARZ009-017-025-026-028-111100-
NORTHEAST ARKANSAS

CITY           SKY/WX    TMP DP  RH WIND       PRES   REMARKS
JONESBORO      CLEAR     25  18  74 NE8       30.07S WCI  16
NEWPORT        CLEAR     26  20  78 N9        30.08R WCI  17
WALNUT RIDGE   CLEAR     25  16  68 NE7       30.09R WCI  17
BLYTHEVILLE    CLEAR     29  15  56 SE12      30.09F WCI  19
$$

ARZ022-023-033-042-044-111100-
CENTRAL ARKANSAS

CITY           SKY/WX    TMP DP  RH WIND       PRES   REMARKS
LITTLE ROCK    CLEAR     34  27  75 NE5       30.02R WCI  30
N LITTLE ROCK    N/A     32  27  81 NE7       30.02R WCI  26
JACKSONVILLE   CLEAR     32  24  74 NE5       30.01R WCI  27
SEARCY         CLEAR     31  25  78 NE7       30.05S WCI  24
HOT SPRINGS    PTCLDY    39  31  72 CALM      29.98S
RUSSELLVILLE   CLEAR     30  25  81 CALM      30.00R
CLINTON        FAIR      25  23  93 CALM      30.04F
$$

ARZ036-111100-
EAST ARKANSAS

CITY           SKY/WX    TMP DP  RH WIND       PRES   REMARKS
WEST MEMPHIS   HAZE      32  19  58 SE6       30.04S VSB 3/4 WCI  26
$$

ARZ050-053-066-070-073-111100-
SOUTHWEST ARKANSAS

CITY           SKY/WX    TMP DP  RH WIND       PRES   REMARKS
ARKADELPHIA    FAIR      32  31  96 N3        30.02R
CAMDEN         CLEAR     32  28  86 NE3       30.00S
TEXARKANA      CLEAR     56  35  45 SW14      29.98F
EL DORADO      CLEAR     52  37  56 SW14      30.01F
DE QUEEN       CLEAR     31  30  96 CALM      29.99R
$$

ARZ056-057-069-111100-
SOUTHEAST ARKANSAS

CITY           SKY/WX    TMP DP  RH WIND       PRES   REMARKS
PINE BLUFF     CLEAR     35  28  75 CALM      30.02R
STUTTGART      CLEAR     34  25  69 N7        30.01S WCI  28
MONTICELLO     CLEAR     49  34  56 SW9       30.00S

$$





USA.gov is the U.S. government's official web portal to all federal, state and local government web resources and services.